THORAD AGENA D DEB, 42500

Orbit data source: Space-Track

THORAD AGENA D DEB, 42500 is space debris in SSO originally from a launch on Wed, 08 Apr 1970 UTC launched from the Air Force Western Test Range (AFWTR). Debris objects in space refer to the collection of defunct objects orbiting the Earth. Examples of debris include non-operational satellites, rocket bodies, and fragments generated from explosions, collisions, or faulty payload assembly.

Loading next visibility...
Identifier
42500, 1970-025RE
Orbit
SSO
Country
Flag of USUS
Related business
Manufacturer
Unknown
Mission
Spacecraft
Bus & Motor
Unknown
Mass
Unknown
Launch date (UTC)
1970-04-08 (56 years ago)
Launch vehicle
Unknown
Launch site
Air Force Western Test Range (AFWTR)
Object type
Payload
Rocket body
Debris
Shape & HBR
Unknown shape, 0.1 m
Radar Cross Section
Small (<0.1 m²)

Expand to show TLE details & history
Last TLE update: 2 days ago

TLE from 2 days ago
0 THORAD AGENA D DEB
1 42500U 70025RE  26061.41834698  .00000134  00000-0  25970-3 0  9997
2 42500  99.4536 286.8617 0010387 149.4863 335.7050 13.54001257606431
Epoch: 2026-03-02T10:02Z
TLE epoch observation values (Epoch: 2026-03-02T10:02:25.179Z)
Latitude
53.86504°
Longitude
169.15796°
Altitude
1,059.295 km
Speed
7.331 km/s
True Right ascension
07h 59m 53s
True Declination
53° 42' 28"
Sunlit
Object was in full shadow at epoch
Visualization orbit readout
Latitude
Unknown
Longitude
Unknown
Altitude
Unknown
Speed
Unknown
Apparent Right ascension
Unknown
Apparent Declination
Unknown
Sunlit
N/A
Visualization observer readout
Local Sidereal Time
09:12:03
Azimuth
Unknown
Elevation
Unknown
Doppler factor
Unknown
Orbital elements
Apogee altitude
1,062.577 km
Perigee altitude
1,047.136 km
Semi-major axis
7,432.994 km
Eccentricity
0.00104
Inclination
99.4536°
RAAN
286.8617°
Arg. of periapsis
149.4863°
True anomaly
335.65597°
Mean anomaly
335.705°
Eccentric anomaly
335.68049°
Mean motion
3.38686 °/min
Orbital period
106.29 mins
BSTAR
0.0002597

Documentation

Showing up to 5 results
|